Location: Unspecified
(0.0000°N, 0.0000°E)
Time: 04:08:05
(UTC+00:00)

DELTA 1 DEB - Visible Passes

Search period start: 19 February 2026 00:00
Search period end: 01 March 2026 00:00
Orbit: 981 x 1372 km, 105.8° (Epoch: 22 January)

Date Brightness Start Highest point End Pass type
(mag) Time Alt. Az. Time Alt. Az. Time Alt. Az.
19 Feb ? 05:01:14 10° E 05:04:46 14° ENE 05:08:14 10° NE visible
19 Feb ? 18:31:21 10° NNE 18:37:23 83° ESE 18:43:33 10° SSW visible
20 Feb ? 19:54:25 10° NW 19:57:50 16° WNW 20:01:16 10° WSW visible
21 Feb ? 19:26:59 10° N 19:32:10 31° WNW 19:37:27 10° SW visible
22 Feb ? 05:28:03 10° ESE 05:33:53 23° ENE 05:39:32 10° NNE visible
22 Feb ? 19:00:34 10° N 19:06:27 59° WNW 19:12:31 10° SSW visible
23 Feb ? 05:05:47 10° E 05:08:20 12° ENE 05:10:51 10° NE visible
23 Feb ? 18:34:45 10° NNE 18:40:44 74° ESE 18:46:57 10° SSW visible
24 Feb ? 19:57:19 10° NNW 20:01:12 18° WNW 20:05:09 10° WSW visible
25 Feb ? 19:30:08 10° N 19:35:30 35° WNW 19:41:03 10° SW visible
26 Feb ? 05:31:59 10° ESE 05:37:23 20° ENE 05:42:38 10° NNE visible
26 Feb ? 19:03:49 10° N 19:09:47 67° WNW 19:15:59 10° SSW visible
27 Feb ? 05:11:33 10° ENE 05:11:50 10° ENE 05:12:06 10° ENE visible
27 Feb ? 18:38:06 10° NNE 18:44:04 66° ESE 18:50:19 10° S visible
28 Feb ? 20:00:13 10° NNW 20:04:31 21° WNW 20:08:56 10° WSW visible
